DELTA 1 DEB

基本信息
目录编号:
21277
目录名称:
DELTA 1 DEB
国际标识:
1975-052N
轨道中心:
EARTH
物体状态:
在轨
发射日期:
1975-06-12 UTC
轨道信息
数据来源: 国际轨道数据
星历时间: 2026-09-11T14:59:05+0800
半长轴: 7565.567km
偏心率: 0.0132716
轨道倾角: 99.758°
近地点辐角: 24.543°
升交点赤经: 21.502°
平近点角: 352.612°
近地点: 1087.022km
远地点: 1287.838km
周期: 109.150分钟
每日圈数: 13.192909
详细信息
发射场:
AFWTR
轨道高度:
LEO
数据来源:
AOE Integration Group
参考系:
TEME
时间系统:
UTC
历元类型:
SGP4
2D轨道图
3D轨道图
轨道高度分析图
轨道倾角分析图
轨道综合分析图
查看轨道综合分析图